This demonstration page uses our WeatherBlox Daily Observations layout. Learn more.

Left ArrowRight Arrow

Hourly Observations for March 5, 2021

Temp ( °F °C ) Dew Point ( °F °C ) Humidity (%) Winds ( mph kmh ) Pressure ( in mb ) Visibility ( mi km ) Precip ( " mm )
12:53 am 00:53 Clear 26 -3.3 23 -5 88 88 WSW 6 9 30.29 1026 10 16 N/A
1:53 am 01:53 Clear 26 -3.3 24 -4.4 92 92 WSW 6 9 30.22 1023 10 16 N/A
2:53 am 02:53 Clear 26 -3.3 24 -4.4 92 92 N N/A 30.21 1023 10 16 N/A
3:53 am 03:53 Clear 26 -3.3 23 -5 88 88 WSW 6 9 30.20 1023 10 16 N/A
4:53 am 04:53 Clear 29 -1.7 26 -3.3 89 89 W 8 13 30.20 1023 7 11 N/A
5:53 am 05:53 Clear 28 -2.2 25 -3.9 88 88 W 5 7 30.21 1023 9 14 N/A
6:53 am 06:53 Sunny 29 -1.7 25 -3.9 85 85 SSW 6 9 30.22 1024 8 13 N/A
7:53 am 07:53 Sunny 32 undefined 27 -2.8 82 82 SSW 5 7 30.22 1023 10 16 N/A
8:53 am 08:53 Sunny 33 0.6 29 -1.7 85 85 SSW 3 6 30.23 1024 10 16 N/A
9:53 am 09:53 Sunny 37 2.8 29 -1.7 73 73 SW 9 15 30.22 1023 7 11 N/A
10:53 am 10:53 Sunny 42 5.6 30 -1.1 62 62 SSW 5 7 30.20 1023 10 16 N/A
11:53 am 11:53 Sunny 49 9.4 32 undefined 52 52 N N/A 30.17 1022 10 16 N/A
12:53 pm 12:53 Sunny 54 12.2 29 -1.7 38 38 W 6 9 30.14 1021 10 16 N/A
1:53 pm 13:53 Sunny 54 12.2 30 -1.1 40 40 WSW 7 11 30.10 1019 10 16 N/A
2:53 pm 14:53 Sunny 59 15 29 -1.7 32 32 WSW 7 11 30.06 1018 10 16 N/A
3:53 pm 15:53 Sunny 58 14.4 30 -1.1 35 35 WSW 12 19 30.05 1018 10 16 N/A
4:53 pm 16:53 Sunny 56 13.3 34 1.1 44 44 N N/A 30.03 1017 10 16 N/A
5:53 pm 17:53 Sunny 47 8.3 32 undefined 56 56 ENE 6 9 30.02 1017 10 16 N/A
6:53 pm 18:53 Clear 41 5 32 undefined 70 70 E 5 7 30.01 1016 10 16 N/A
7:53 pm 19:53 Clear 42 5.6 25 -3.9 51 51 N N/A 29.99 1016 10 16 N/A
8:53 pm 20:53 Clear 39 3.9 23 -5 53 53 S 5 7 29.98 1015 10 16 N/A
9:53 pm 21:53 Clear 35 1.7 24 -4.4 64 64 N N/A 29.96 1015 10 16 N/A
10:53 pm 22:53 Clear 33 0.6 25 -3.9 72 72 VRB 3 6 29.93 1014 10 16 N/A
11:53 pm 23:53 Clear 35 1.7 25 -3.9 67 67 W 5 7 29.91 1013 10 16 N/A

Powered by AerisWeather